Location: The Saddle
(36.8333°N, 80.3417°W)
Time: 23:26:46
(UTC-04:00)

Courier 1B - Pass Details

Date: 20 January 2022
Orbit: 962 x 1209 km, 28.3° (Epoch: 19 May)

Event Time Altitude Azimuth Distance (km) Brightness Sun altitude
Rises 19:30:45 0° 209° (SSW) 4,088 11.3 -23.2°
Reaches altitude 10° 19:34:44 10° 191° (S) 3,135 10.3 -24.0°
Maximum altitude 19:39:29 17° 153° (SSE) 2,620 9.5 -24.9°
Enters shadow 19:40:20 17° 145° (SE) 2,636 9.5 -25.1°
Drops below altitude 10° 19:44:12 10° 115° (ESE) 3,116 - -25.8°
Sets 19:48:08 0° 97° (E) 4,054 - -26.6°
